This is the latest recevied weather packets stored in our database for station/object W2BP-13. If no packets are shown the sender has not sent any weather packets the latest 10 day(s).
| Time | Temp. | Humidity | Pressure | Rain* | Wind** | Luminosity | Snow |
|---|---|---|---|---|---|---|---|
| 1778381733 | 21.11° C | 38% | 1019.6 hPa | 0 mm | - | - | - |
| 1778380832 | 22.22° C | 34% | 1019.8 hPa | 0 mm | - | - | - |
| 1778379932 | 22.22° C | 32% | 1019.7 hPa | 0 mm | - | - | - |
| 1778379033 | 22.78° C | 31% | 1019.7 hPa | 0 mm | - | - | - |
| 1778378133 | 24.44° C | 29% | 1019.6 hPa | 0 mm | - | - | - |
| 1778377232 | 24.44° C | 29% | 1020.1 hPa | 0 mm | - | - | - |
| 1778376332 | 25° C | 28% | 1020.1 hPa | 0 mm | - | - | - |
| 1778375432 | 25° C | 27% | 1020.2 hPa | 0 mm | - | - | - |
| 1778374533 | 26.11° C | 23% | 1020.2 hPa | 0 mm | - | - | - |
| 1778373632 | 26.67° C | 22% | 1020.5 hPa | 0 mm | - | - | - |
| 1778372732 | 27.22° C | 21% | 1020.4 hPa | 0 mm | - | - | - |
| 1778371833 | 28.33° C | 20% | 1020.5 hPa | 0 mm | - | - | - |
| 1778370932 | 27.22° C | 21% | 1020.4 hPa | 0 mm | - | - | - |
| 1778370033 | 26.67° C | 23% | 1020.8 hPa | 0 mm | - | - | - |
| 1778369132 | 27.78° C | 23% | 1021.3 hPa | 0 mm | - | - | - |
| 1778368232 | 27.22° C | 24% | 1021.4 hPa | 0 mm | - | - | - |
| 1778367333 | 26.67° C | 25% | 1021.1 hPa | 0 mm | - | - | - |
| 1778366432 | 27.22° C | 26% | 1021.8 hPa | 0 mm | - | - | - |
| 1778365533 | 26.67° C | 25% | 1022.1 hPa | 0 mm | - | - | - |
| 1778364632 | 27.22° C | 25% | 1022.3 hPa | 0 mm | - | - | - |
| 1778363733 | 26.67° C | 25% | 1022.3 hPa | 0 mm | - | - | - |
| 1778362832 | 26.11° C | 24% | 1022.3 hPa | 0 mm | - | - | - |
| 1778361932 | 25.56° C | 26% | 1022.5 hPa | 0 mm | - | - | - |
| 1778361033 | 25.56° C | 29% | 1022.5 hPa | 0 mm | - | - | - |
| 1778360133 | 24.44° C | 31% | 1022.7 hPa | 0 mm | - | - | - |
* Rain latest hour (hover to see other rain measurements)
** Current wind speed in m/s (hover to see current wind gust speed)